Find Starlink 30161

NORAD ID: 57476 Int'l Des: 2023-107 Owner: SPXS Country: US Constellation: starlink operational
LEOCIRCULAR

当前视图

正在加载3D地球...

About Starlink 30161

Starlink 30161 (NORAD 57476) is a starlink constellation satellite (v2 mini) launched Jul 28, 2023 by SPXS of US. It operates in LEO, CIRCULAR orbit with a mass of 730.00 kg.

关于 Starlink 30161

正在加载描述...

即将过境

Passes for default location (London). Set your location on the main map for personalized predictions.

高度历史

Loading altitude history...

两行轨道根数

1 57476U 23107V 26174.96290423 .00000580 00000-0 30600-4 0 9993
2 57476 43.0078 95.6298 0001479 253.1724 106.8966 15.27566863161404
Epoch: Jun 23, 2026 • Age: 17 hours

当前状态

高度 484.7 km
速度 7.62 km/s
星下点 -10.44°S, 77.15°W
发射日期 Jul 28, 2023
运行时间 2.9 years
类型 internet

技术详情

分类 Payload
质量 730.00 kg
干质量 700.00 kg
总质量 730.00 kg
长度 0.30 m
直径 4.10 m
跨度 29.00 m
形状 Box + pan
制造商 SPXS
平台类型 Starlink V2M
阶段状态 In Orbit
所有者/国家 SPXS/US

Most Searched